Location: Larrial
(48.2758°N, 4.5331°W)
Time: 23:34:50
(UTC+00:00)

AAUSAT CUBESAT 2 - Pass Details

Date: 03 December 2021
Orbit: 571 x 586 km, 97.5° (Epoch: 19 January)

Event Time Altitude Azimuth Distance (km) Brightness Sun altitude
Rises 05:21:27 0° 15° (NNE) 2,797 ? -23.9°
Reaches altitude 10° 05:23:38 10° 19° (NNE) 1,896 ? -23.6°
Maximum altitude 05:27:42 63° 101° (E) 651 ? -22.9°
Drops below altitude 10° 05:31:46 10° 183° (S) 1,889 ? -22.2°
Sets 05:33:56 0° 186° (S) 2,785 ? -21.9°
